Other Public Products
Issued by NWS Charleston, SC

Current Version | Previous Version | Graphics & Text | Print | Product List | Glossary On
Versions: 1 2 3 4 5 6 7 8 9 10 11 12 13 14 15 16 17 18 19 20 21 22 23 24 25 26 27 28 29 30 31 32 33 34 35 36 37 38 39 40 41 42 43 44 45 46 47 48 49 50
000 FPUS82 KCHS 200912 OPUCHS TEST...KCHS/KSAV Gateway Observations...TEST National Weather Service Charleston SC 500 AM EDT SUN AUG 20 2017 NOTE: "fair" indicates few or no clouds below 12,000 feet with no significant weather and/or obstructions to visibility. SCZ050-WAZ558-NCZ071-TXZ119-213-PAZ071-DCZ001-FLZ074-172-MI076- NYZ176-178-MAZ016-IL014-TNZ027-NJZ106-GAZ044-MD014-201000- ...Gateway Observations for Charleston International... CITY SKY/WX TMP DP RH WIND PRES REMARKS Chas Airport PTCLDY 80 79 96 CALM 29.99S Seattle MOCLDY 60 49 66 N10 30.17F Charlotte PTCLDY 70 69 97 N5 30.05R Dallas DFW PTCLDY 84 71 65 S10 29.93F Dallas Love PTCLDY 84 71 65 S9 29.95S Philladelphia CLEAR 70 59 68 W8 30.01R Wash National PTCLDY 71 63 75 NW5 30.03R Baltimore PTCLDY 67 62 84 NW6 30.03R Miami CLOUDY 84 73 69 NE5 29.97R HX 90 Detroit CLEAR 63 59 87 CALM 30.06R Newark CLEAR 69 62 78 W6 29.96R Laguardia CLEAR 72 64 76 NW15 29.94R J F K PTCLDY 72 64 76 W8 29.96R Boston Logan PTCLDY 73 64 73 W8 29.85R Ft. Lauderdale CLOUDY 83 74 74 E5 29.96S Chicago O`Hare CLEAR 64 57 78 CALM 30.00S Chicago Midway CLEAR 69 58 67 S6 30.00S Houston Bush PTCLDY 80 75 84 CALM 29.96F Houston Hobby PTCLDY 81 75 82 SW3 29.96S Nashville PTCLDY 73 70 90 CALM 30.03R Atlanta PTCLDY 76 68 76 N3 30.04S $$ GAZ044-118-TXZ119-213-NCZ071-DCZ001-MDZ014-506-PAZ021-071-NJZ106- NYZ176-178-MAZ106-OHZ011-021-055-MIZ076-KYZ091-ILZ014-INZ047- MNZ060-ONZ431-201000- ...Gateway Observations for Savannah International... CITY SKY/WX TMP DP RH WIND PRES REMARKS Savannah Arpt CLEAR 79 76 90 CALM 30.00R Atlanta PTCLDY 76 68 76 N3 30.04S Charlotte PTCLDY 70 69 97 N5 30.05R Dallas DFW PTCLDY 84 71 65 S10 29.93F Houston Bush PTCLDY 80 75 84 CALM 29.96F Wash National PTCLDY 71 63 75 NW5 30.03R Wash Dulles CLEAR 68 63 84 NW8 30.05R Baltimore PTCLDY 67 62 84 NW6 30.03R Philadelphia CLEAR 70 59 68 W8 30.01R Newark CLEAR 69 62 78 W6 29.96R Laguardia CLEAR 72 64 76 NW15 29.94R J F K PTCLDY 72 64 76 W8 29.96R Boston PTCLDY 73 64 73 W8 29.85R Pittsburg FOG 61 61 100 CALM 30.09S VSB<1/4 Akron CLEAR 62 58 86 S3 30.09R Cleveland CLEAR 63 59 87 S3 30.08R Cincinnati PTCLDY 71 69 93 SE7 30.04R Columbus PTCLDY 62 62 100 CALM 30.06R FOG Detroit CLEAR 63 59 87 CALM 30.06R Chicago O`Hare CLEAR 64 57 78 CALM 30.00S Minneapolis CLOUDY 66 61 84 SE6 29.88R Indianapolis PTCLDY 71 62 73 E7 30.00F Toronto Canada PTCLDY 63 57 82 VRB2 30.00R $$

USA.gov is the U.S. government's official web portal to all federal, state and local government web resources and services.